Time,TemperatureF,DewpointF,PressureIn,WindDirection,WindDirectionDegrees,WindSpeedMPH,WindSpeedGustMPH,Humidity,HourlyPrecipIn,Conditions,Clouds,dailyrainin,SoftwareType,DateUTC
2013-03-07 00:01:00,38.0,30.0,-100.00,NE,50,27.0,36.0,72,-99.99,,,-99.99,,2013-03-07 05:01:00,
2013-03-07 00:12:00,38.0,30.0,-100.00,NE,50,27.0,36.0,72,-99.99,,,-99.99,,2013-03-07 05:12:00,
2013-03-07 00:22:00,38.0,30.0,-100.00,NE,40,25.0,34.0,73,-99.99,,,-99.99,,2013-03-07 05:22:00,
2013-03-07 00:31:00,38.0,30.0,-100.00,NE,40,25.0,34.0,73,-99.99,,,-99.99,,2013-03-07 05:31:00,
2013-03-07 00:41:00,37.0,31.0,-100.00,NE,40,25.0,29.0,78,-99.99,,,-99.99,,2013-03-07 05:41:00,
2013-03-07 00:52:00,37.0,31.0,-100.00,NE,40,25.0,29.0,78,-99.99,,,-99.99,,2013-03-07 05:52:00,
2013-03-07 01:01:00,37.0,31.0,-100.00,NE,40,25.0,29.0,78,-99.99,,,-99.99,,2013-03-07 06:01:00,
2013-03-07 01:11:00,37.0,31.0,-100.00,NE,40,25.0,29.0,78,-99.99,,,-99.99,,2013-03-07 06:11:00,
2013-03-07 01:21:00,36.0,31.0,-100.00,NNE,30,22.0,31.0,81,-99.99,,,-99.99,,2013-03-07 06:21:00,
2013-03-07 01:31:00,36.0,31.0,-100.00,NNE,30,22.0,31.0,81,-99.99,,,-99.99,,2013-03-07 06:31:00,
2013-03-07 01:41:00,36.0,33.0,-100.00,NNE,30,18.0,25.0,88,-99.99,,,-99.99,,2013-03-07 06:41:00,
2013-03-07 01:51:00,36.0,33.0,-100.00,NNE,30,18.0,25.0,88,-99.99,,,-99.99,,2013-03-07 06:51:00,
2013-03-07 02:01:00,36.0,33.0,-100.00,NNE,30,18.0,25.0,88,-99.99,,,-99.99,,2013-03-07 07:01:00,
2013-03-07 02:11:00,36.0,33.0,-100.00,NNE,30,18.0,25.0,88,-99.99,,,-99.99,,2013-03-07 07:11:00,
2013-03-07 02:21:00,36.0,32.0,-100.00,NNE,30,18.0,22.0,85,-99.99,,,-99.99,,2013-03-07 07:21:00,
2013-03-07 02:31:00,36.0,32.0,-100.00,NNE,30,18.0,22.0,85,-99.99,,,-99.99,,2013-03-07 07:31:00,
2013-03-07 02:41:00,36.0,32.0,-100.00,NNE,30,18.0,22.0,85,-99.99,,,-99.99,,2013-03-07 07:41:00,
2013-03-07 02:51:00,36.0,32.0,-100.00,NNE,20,22.0,27.0,84,-99.99,,,-99.99,,2013-03-07 07:51:00,
2013-03-07 03:01:00,36.0,32.0,-100.00,NNE,20,22.0,27.0,84,-99.99,,,-99.99,,2013-03-07 08:01:00,
2013-03-07 03:11:00,36.0,30.0,-100.00,NNE,30,22.0,31.0,78,-99.99,,,-99.99,,2013-03-07 08:11:00,
2013-03-07 03:21:00,36.0,30.0,-100.00,NNE,30,22.0,31.0,78,-99.99,,,-99.99,,2013-03-07 08:21:00,
2013-03-07 03:31:00,36.0,30.0,-100.00,NNE,30,22.0,31.0,78,-99.99,,,-99.99,,2013-03-07 08:31:00,
2013-03-07 03:42:00,36.0,30.0,-100.00,NNE,30,22.0,31.0,78,-99.99,,,-99.99,,2013-03-07 08:42:00,
2013-03-07 03:52:00,37.0,30.0,-100.00,NNE,30,22.0,27.0,74,-99.99,,,-99.99,,2013-03-07 08:52:00,
2013-03-07 04:01:00,37.0,30.0,-100.00,NNE,30,22.0,27.0,74,-99.99,,,-99.99,,2013-03-07 09:01:00,
2013-03-07 04:11:00,37.0,29.0,-100.00,NE,40,22.0,31.0,72,-99.99,,,-99.99,,2013-03-07 09:11:00,
2013-03-07 04:21:00,37.0,29.0,-100.00,NE,40,22.0,31.0,72,-99.99,,,-99.99,,2013-03-07 09:21:00,
2013-03-07 04:31:00,37.0,29.0,-100.00,NE,40,22.0,31.0,72,-99.99,,,-99.99,,2013-03-07 09:31:00,
2013-03-07 04:41:00,37.0,29.0,-100.00,NE,40,22.0,31.0,72,-99.99,,,-99.99,,2013-03-07 09:41:00,
2013-03-07 04:51:00,37.0,29.0,-100.00,NE,40,22.0,29.0,71,-99.99,,,-99.99,,2013-03-07 09:51:00,
2013-03-07 05:01:00,37.0,29.0,-100.00,NE,40,22.0,29.0,71,-99.99,,,-99.99,,2013-03-07 10:01:00,
2013-03-07 05:11:00,37.0,28.0,-100.00,NNE,30,25.0,34.0,70,-99.99,,,-99.99,,2013-03-07 10:11:00,
2013-03-07 05:21:00,37.0,28.0,-100.00,NNE,30,25.0,34.0,70,-99.99,,,-99.99,,2013-03-07 10:21:00,
2013-03-07 05:31:00,37.0,28.0,-100.00,NNE,30,25.0,34.0,70,-99.99,,,-99.99,,2013-03-07 10:31:00,
2013-03-07 05:41:00,37.0,28.0,-100.00,NNE,30,25.0,31.0,69,-99.99,,,-99.99,,2013-03-07 10:41:00,
2013-03-07 05:51:00,37.0,28.0,-100.00,NNE,30,25.0,31.0,69,-99.99,,,-99.99,,2013-03-07 10:51:00,
2013-03-07 06:01:00,37.0,28.0,-100.00,NNE,30,25.0,31.0,69,-99.99,,,-99.99,,2013-03-07 11:01:00,
2013-03-07 06:11:00,37.0,28.0,-100.00,NNE,30,22.0,31.0,69,-99.99,,,-99.99,,2013-03-07 11:11:00,
2013-03-07 06:21:00,37.0,28.0,-100.00,NNE,30,22.0,31.0,69,-99.99,,,-99.99,,2013-03-07 11:21:00,
2013-03-07 06:32:00,37.0,28.0,-100.00,NNE,30,22.0,31.0,69,-99.99,,,-99.99,,2013-03-07 11:32:00,
2013-03-07 06:41:00,36.0,28.0,-100.00,NNE,20,22.0,31.0,70,-99.99,,,-99.99,,2013-03-07 11:41:00,
2013-03-07 06:52:00,36.0,28.0,-100.00,NNE,20,22.0,31.0,70,-99.99,,,-99.99,,2013-03-07 11:52:00,
2013-03-07 07:01:00,36.0,28.0,-100.00,NNE,20,22.0,31.0,70,-99.99,,,-99.99,,2013-03-07 12:01:00,
2013-03-07 07:11:00,36.0,28.0,-100.00,NNE,20,20.0,27.0,70,-99.99,,,-99.99,,2013-03-07 12:11:00,
2013-03-07 07:21:00,36.0,28.0,-100.00,NNE,20,20.0,27.0,70,-99.99,,,-99.99,,2013-03-07 12:21:00,
2013-03-07 07:32:00,36.0,28.0,-100.00,NNE,20,20.0,27.0,70,-99.99,,,-99.99,,2013-03-07 12:32:00,
2013-03-07 07:41:00,36.0,28.0,-100.00,NNE,20,20.0,27.0,70,-99.99,,,-99.99,,2013-03-07 12:41:00,
2013-03-07 07:51:00,35.0,29.0,-100.00,NNE,20,20.0,27.0,79,-99.99,,,-99.99,,2013-03-07 12:51:00,
2013-03-07 08:01:00,35.0,29.0,-100.00,NNE,20,20.0,27.0,79,-99.99,,,-99.99,,2013-03-07 13:01:00,
2013-03-07 08:11:00,34.0,31.0,-100.00,North,10,18.0,25.0,87,-99.99,,,-99.99,,2013-03-07 13:11:00,
2013-03-07 08:21:00,34.0,31.0,-100.00,North,10,18.0,25.0,87,-99.99,,,-99.99,,2013-03-07 13:21:00,
2013-03-07 08:31:00,34.0,31.0,-100.00,North,10,18.0,25.0,87,-99.99,,,-99.99,,2013-03-07 13:31:00,
2013-03-07 08:41:00,34.0,31.0,-100.00,North,10,18.0,25.0,87,-99.99,,,-99.99,,2013-03-07 13:41:00,
2013-03-07 08:52:00,34.0,31.0,-100.00,NNE,20,16.0,20.0,87,-99.99,,,-99.99,,2013-03-07 13:52:00,
2013-03-07 09:01:00,34.0,31.0,-100.00,NNE,20,16.0,20.0,87,-99.99,,,-99.99,,2013-03-07 14:01:00,
2013-03-07 09:11:00,34.0,31.0,-100.00,NNE,20,16.0,20.0,87,-99.99,,,-99.99,,2013-03-07 14:11:00,
2013-03-07 09:21:00,35.0,29.0,-100.00,NNE,20,18.0,27.0,78,-99.99,,,-99.99,,2013-03-07 14:21:00,
2013-03-07 09:31:00,35.0,29.0,-100.00,NNE,20,18.0,27.0,78,-99.99,,,-99.99,,2013-03-07 14:31:00,
2013-03-07 09:41:00,35.0,29.0,-100.00,NNE,20,18.0,27.0,78,-99.99,,,-99.99,,2013-03-07 14:41:00,
2013-03-07 09:52:00,36.0,29.0,-100.00,NNE,20,18.0,25.0,76,-99.99,,,-99.99,,2013-03-07 14:52:00,
2013-03-07 10:01:00,36.0,29.0,-100.00,NNE,20,18.0,25.0,76,-99.99,,,-99.99,,2013-03-07 15:01:00,
2013-03-07 10:11:00,36.0,30.0,-100.00,NNE,20,18.0,25.0,78,-99.99,,,-99.99,,2013-03-07 15:11:00,
2013-03-07 10:21:00,36.0,30.0,-100.00,NNE,20,18.0,25.0,78,-99.99,,,-99.99,,2013-03-07 15:21:00,
2013-03-07 10:31:00,36.0,30.0,-100.00,NNE,20,18.0,25.0,78,-99.99,,,-99.99,,2013-03-07 15:31:00,
2013-03-07 10:41:00,36.0,30.0,-100.00,NNE,20,18.0,25.0,78,-99.99,,,-99.99,,2013-03-07 15:41:00,
2013-03-07 10:51:00,35.0,31.0,-100.00,North,10,18.0,25.0,82,-99.99,,,-99.99,,2013-03-07 15:51:00,
2013-03-07 11:01:00,35.0,31.0,-100.00,North,10,18.0,25.0,82,-99.99,,,-99.99,,2013-03-07 16:01:00,
2013-03-07 11:11:00,36.0,31.0,-100.00,North,10,18.0,22.0,79,-99.99,,,-99.99,,2013-03-07 16:11:00,
2013-03-07 11:21:00,36.0,31.0,-100.00,North,10,18.0,22.0,79,-99.99,,,-99.99,,2013-03-07 16:21:00,
2013-03-07 11:31:00,36.0,31.0,-100.00,North,10,18.0,22.0,79,-99.99,,,-99.99,,2013-03-07 16:31:00,
2013-03-07 11:41:00,36.0,31.0,-100.00,North,10,18.0,22.0,79,-99.99,,,-99.99,,2013-03-07 16:41:00,
2013-03-07 11:52:00,37.0,30.0,-100.00,NNE,20,18.0,25.0,76,-99.99,,,-99.99,,2013-03-07 16:52:00,
2013-03-07 12:01:00,37.0,30.0,-100.00,NNE,20,18.0,25.0,76,-99.99,,,-99.99,,2013-03-07 17:01:00,
2013-03-07 12:11:00,37.0,31.0,-100.00,North,10,18.0,25.0,78,-99.99,,,-99.99,,2013-03-07 17:11:00,
2013-03-07 12:21:00,37.0,31.0,-100.00,North,10,18.0,25.0,78,-99.99,,,-99.99,,2013-03-07 17:21:00,
2013-03-07 12:31:00,37.0,31.0,-100.00,North,10,18.0,25.0,78,-99.99,,,-99.99,,2013-03-07 17:31:00,
2013-03-07 12:41:00,37.0,31.0,-100.00,North,10,16.0,20.0,78,-99.99,,,-99.99,,2013-03-07 17:41:00,
2013-03-07 13:01:00,37.0,31.0,-100.00,North,10,16.0,20.0,78,-99.99,,,-99.99,,2013-03-07 18:01:00,
2013-03-07 13:11:00,37.0,31.0,-100.00,North,10,16.0,18.0,78,-99.99,,,-99.99,,2013-03-07 18:11:00,
2013-03-07 13:21:00,37.0,31.0,-100.00,North,10,16.0,18.0,78,-99.99,,,-99.99,,2013-03-07 18:21:00,
2013-03-07 13:31:00,37.0,31.0,-100.00,North,10,16.0,18.0,78,-99.99,,,-99.99,,2013-03-07 18:31:00,
2013-03-07 13:41:00,37.0,31.0,-100.00,North,10,16.0,18.0,78,-99.99,,,-99.99,,2013-03-07 18:41:00,
2013-03-07 14:21:00,38.0,32.0,-100.00,North,10,18.0,20.0,78,-99.99,,,-99.99,,2013-03-07 19:21:00,
2013-03-07 14:31:00,38.0,32.0,-100.00,North,10,18.0,20.0,78,-99.99,,,-99.99,,2013-03-07 19:31:00,
2013-03-07 14:42:00,38.0,31.0,-100.00,North,360,16.0,22.0,77,-99.99,,,-99.99,,2013-03-07 19:42:00,
2013-03-07 14:51:00,38.0,31.0,-100.00,North,360,16.0,22.0,77,-99.99,,,-99.99,,2013-03-07 19:51:00,
2013-03-07 15:01:00,38.0,31.0,-100.00,North,360,16.0,22.0,77,-99.99,,,-99.99,,2013-03-07 20:01:00,
2013-03-07 15:11:00,37.0,31.0,-100.00,North,360,18.0,27.0,80,-99.99,,,-99.99,,2013-03-07 20:11:00,
2013-03-07 15:21:00,37.0,31.0,-100.00,North,360,18.0,27.0,80,-99.99,,,-99.99,,2013-03-07 20:21:00,
2013-03-07 15:31:00,37.0,31.0,-100.00,North,360,18.0,27.0,80,-99.99,,,-99.99,,2013-03-07 20:31:00,
2013-03-07 15:41:00,36.0,32.0,-100.00,North,350,18.0,25.0,84,-99.99,,,-99.99,,2013-03-07 20:41:00,
2013-03-07 15:52:00,36.0,32.0,-100.00,North,350,18.0,25.0,84,-99.99,,,-99.99,,2013-03-07 20:52:00,
2013-03-07 16:01:00,36.0,32.0,-100.00,North,350,18.0,25.0,84,-99.99,,,-99.99,,2013-03-07 21:01:00,
2013-03-07 16:11:00,36.0,32.0,-100.00,North,350,16.0,22.0,86,-99.99,,,-99.99,,2013-03-07 21:11:00,
2013-03-07 16:21:00,36.0,32.0,-100.00,North,350,16.0,22.0,86,-99.99,,,-99.99,,2013-03-07 21:21:00,
2013-03-07 16:31:00,36.0,32.0,-100.00,North,350,16.0,22.0,86,-99.99,,,-99.99,,2013-03-07 21:31:00,
2013-03-07 16:41:00,36.0,32.0,-100.00,North,350,16.0,22.0,86,-99.99,,,-99.99,,2013-03-07 21:41:00,
2013-03-07 16:52:00,36.0,32.0,-100.00,North,350,16.0,20.0,84,-99.99,,,-99.99,,2013-03-07 21:52:00,
2013-03-07 17:01:00,36.0,32.0,-100.00,North,350,16.0,20.0,84,-99.99,,,-99.99,,2013-03-07 22:01:00,
2013-03-07 17:11:00,36.0,32.0,-100.00,North,350,16.0,22.0,85,-99.99,,,-99.99,,2013-03-07 22:11:00,
2013-03-07 17:21:00,36.0,32.0,-100.00,North,350,16.0,22.0,85,-99.99,,,-99.99,,2013-03-07 22:21:00,
2013-03-07 17:31:00,36.0,32.0,-100.00,North,350,16.0,22.0,85,-99.99,,,-99.99,,2013-03-07 22:31:00,
2013-03-07 17:41:00,36.0,32.0,-100.00,North,350,16.0,22.0,85,-99.99,,,-99.99,,2013-03-07 22:41:00,
2013-03-07 17:52:00,36.0,31.0,-100.00,North,350,18.0,22.0,83,-99.99,,,-99.99,,2013-03-07 22:52:00,
2013-03-07 18:01:00,36.0,31.0,-100.00,North,350,18.0,22.0,83,-99.99,,,-99.99,,2013-03-07 23:01:00,
2013-03-07 18:11:00,36.0,31.0,-100.00,North,350,18.0,25.0,81,-99.99,,,-99.99,,2013-03-07 23:11:00,
2013-03-07 18:21:00,36.0,31.0,-100.00,North,350,18.0,25.0,81,-99.99,,,-99.99,,2013-03-07 23:21:00,
2013-03-07 18:31:00,36.0,31.0,-100.00,North,350,18.0,25.0,81,-99.99,,,-99.99,,2013-03-07 23:31:00,
2013-03-07 18:41:00,36.0,31.0,-100.00,North,350,18.0,25.0,81,-99.99,,,-99.99,,2013-03-07 23:41:00,
2013-03-07 18:52:00,36.0,31.0,-100.00,North,350,20.0,27.0,79,-99.99,,,-99.99,,2013-03-07 23:52:00,
2013-03-07 19:01:00,36.0,31.0,-100.00,North,350,20.0,27.0,79,-99.99,,,-99.99,,2013-03-08 00:01:00,
2013-03-07 19:11:00,36.0,31.0,-100.00,North,350,20.0,27.0,79,-99.99,,,-99.99,,2013-03-08 00:11:00,
2013-03-07 19:21:00,36.0,31.0,-100.00,North,350,20.0,25.0,82,-99.99,,,-99.99,,2013-03-08 00:21:00,
2013-03-07 19:31:00,36.0,31.0,-100.00,North,350,20.0,25.0,82,-99.99,,,-99.99,,2013-03-08 00:31:00,
2013-03-07 19:42:00,35.0,32.0,-100.00,NNW,340,20.0,25.0,86,-99.99,,,-99.99,,2013-03-08 00:42:00,
2013-03-07 19:52:00,35.0,32.0,-100.00,NNW,340,20.0,25.0,86,-99.99,,,-99.99,,2013-03-08 00:52:00,
2013-03-07 20:01:00,35.0,32.0,-100.00,NNW,340,20.0,25.0,86,-99.99,,,-99.99,,2013-03-08 01:01:00,
2013-03-07 20:11:00,35.0,32.0,-100.00,NNW,340,18.0,25.0,90,-99.99,,,-99.99,,2013-03-08 01:11:00,
2013-03-07 20:21:00,35.0,32.0,-100.00,NNW,340,18.0,25.0,90,-99.99,,,-99.99,,2013-03-08 01:21:00,
2013-03-07 20:31:00,35.0,32.0,-100.00,NNW,340,18.0,25.0,90,-99.99,,,-99.99,,2013-03-08 01:31:00,
2013-03-07 20:41:00,35.0,32.0,-100.00,NNW,340,18.0,25.0,90,-99.99,,,-99.99,,2013-03-08 01:41:00,
2013-03-07 20:51:00,35.0,33.0,-100.00,NNW,340,18.0,25.0,92,-99.99,,,-99.99,,2013-03-08 01:51:00,
2013-03-07 21:01:00,35.0,33.0,-100.00,NNW,340,18.0,25.0,92,-99.99,,,-99.99,,2013-03-08 02:01:00,
2013-03-07 21:11:00,35.0,33.0,-100.00,NNW,340,18.0,25.0,92,-99.99,,,-99.99,,2013-03-08 02:11:00,
2013-03-07 21:21:00,35.0,33.0,-100.00,NNW,340,20.0,22.0,92,-99.99,,,-99.99,,2013-03-08 02:21:00,
2013-03-07 21:31:00,35.0,33.0,-100.00,NNW,340,20.0,22.0,92,-99.99,,,-99.99,,2013-03-08 02:31:00,
2013-03-07 21:41:00,35.0,33.0,-100.00,NNW,340,20.0,22.0,92,-99.99,,,-99.99,,2013-03-08 02:41:00,
2013-03-07 21:52:00,35.0,33.0,-100.00,North,350,18.0,22.0,92,-99.99,,,-99.99,,2013-03-08 02:52:00,
2013-03-07 22:01:00,35.0,33.0,-100.00,North,350,18.0,22.0,92,-99.99,,,-99.99,,2013-03-08 03:01:00,
2013-03-07 22:11:00,34.0,32.0,-100.00,NNW,340,20.0,25.0,92,-99.99,,,-99.99,,2013-03-08 03:11:00,
2013-03-07 22:21:00,34.0,32.0,-100.00,NNW,340,20.0,25.0,92,-99.99,,,-99.99,,2013-03-08 03:21:00,
2013-03-07 22:31:00,34.0,32.0,-100.00,NNW,340,20.0,25.0,92,-99.99,,,-99.99,,2013-03-08 03:31:00,
2013-03-07 22:41:00,34.0,32.0,-100.00,NNW,340,20.0,25.0,92,-99.99,,,-99.99,,2013-03-08 03:41:00,
2013-03-07 22:52:00,34.0,33.0,-100.00,NNW,340,18.0,25.0,95,-99.99,,,-99.99,,2013-03-08 03:52:00,
2013-03-07 23:01:00,34.0,33.0,-100.00,NNW,340,18.0,25.0,95,-99.99,,,-99.99,,2013-03-08 04:01:00,
2013-03-07 23:11:00,34.0,33.0,-100.00,North,350,18.0,25.0,95,-99.99,,,-99.99,,2013-03-08 04:11:00,
2013-03-07 23:21:00,34.0,33.0,-100.00,North,350,18.0,25.0,95,-99.99,,,-99.99,,2013-03-08 04:21:00,
2013-03-07 23:31:00,34.0,33.0,-100.00,North,350,18.0,25.0,95,-99.99,,,-99.99,,2013-03-08 04:31:00,
2013-03-07 23:42:00,34.0,33.0,-100.00,North,350,18.0,25.0,95,-99.99,,,-99.99,,2013-03-08 04:42:00,
2013-03-07 23:51:00,34.0,33.0,-100.00,NNW,340,16.0,20.0,95,-99.99,,,-99.99,,2013-03-08 04:51:00,